Regional Weather Roundup
Issued by NWS

Home | Current Version | Previous Version | Graphics & Text | Print | Product List | Glossary On
Versions: 1 2 3 4 5 6 7 8 9 10 11 12 13 14 15 16 17 18 19 20 21 22 23 24 25 26 27 28 29 30 31 32 33 34 35 36 37 38 39 40 41 42 43 44 45 46 47 48 49 50
000
ASUS45 KBOI 280110
RWRID

IDAHO REGIONAL WEATHER ROUNDUP
NATIONAL WEATHER SERVICE BOISE ID
700 PM MDT WED MAY 27 2015

NOTE: "FAIR" INDICATES FEW OR NO CLOUDS BELOW 12000 FEET
WITH NO SIGNIFICANT WEATHER AND/OR OBSTRUCTIONS TO VISIBILITY

IDZ012-014-280200-
SOUTHWEST IDAHO


CITY           SKY/WX    TMP DP  RH WIND       PRES   REMARKS
BOISE          PTSUNNY   71  41  33 N13       29.95S
CALDWELL       PTSUNNY   72  43  35 N13       29.96F
MOUNTAIN HOME  PTSUNNY   70  38  31 W8        29.94S
$$

IDZ016-017-280200-
SOUTHCENTRAL IDAHO


CITY           SKY/WX    TMP DP  RH WIND       PRES   REMARKS
BURLEY         CLOUDY    62  47  57 SW5       29.96F
JEROME         TSTM      57  47  69 W18G25    30.03R
TWIN FALLS     CLOUDY    63  47  55 S9        29.96F
$$

IDZ019>023-280200-
SOUTHEAST IDAHO


CITY           SKY/WX    TMP DP  RH WIND       PRES   REMARKS
IDAHO FALLS    CLOUDY    61  42  49 S8        30.00F
POCATELLO      PTSUNNY   60  49  66 E10       30.00F THUNDER
REXBURG        PTSUNNY   60  47  61 VRB5      30.01F
$$

IDZ006-010-011-018-031-032-280200-
CENTRAL IDAHO MOUNTAINS


CITY           SKY/WX    TMP DP  RH WIND       PRES   REMARKS
MCCALL         MOSUNNY   58  36  43 SW5       30.02F
HAILEY         PTSUNNY   59  46  63 W6        30.00F
STANLEY          N/A     48  38  68 SE6       30.11F
SALMON         PTSUNNY   59  41  51 CALM      30.00F
CHALLIS        CLOUDY    56  41  57 NW6       30.03F
$$

IDZ002-004-006-007-026-280200-
NORTHERN IDAHO


CITY           SKY/WX    TMP DP  RH WIND       PRES   REMARKS
LEWISTON       PTSUNNY   71  50  47 E10       29.95F
LOWELL           N/A     65  52  62 NW6       29.97F
COEUR D`ALENE  PTSUNNY   72  45  37 CALM      29.95F
MULLAN PASS    PTSUNNY   50  41  71 VRB3      30.08S
$$



USA.gov is the U.S. government's official web portal to all federal, state and local government web resources and services.